Météo par heure à Abaetetuba

Ce jour, 13 Avril, Mardi

Heure Température Précipitation Vent Pression Humidité
00:00 +26°C° 0.5 mm 2 m/s 758 mmHg 96%
01:00 +25°C° 0.9 mm 2 m/s 758 mmHg 96%
02:00 +25°C° 0.9 mm 2 m/s 757 mmHg 96%
03:00 +25°C° 0.9 mm 2 m/s 757 mmHg 97%
04:00 +25°C° 0.2 mm 2 m/s 757 mmHg 97%
05:00 +25°C° 0.2 mm 2 m/s 758 mmHg 97%
06:00 +25°C° 0.2 mm 2 m/s 758 mmHg 97%
07:00 +26°C° 0.1 mm 2 m/s 758 mmHg 92%
08:00 +27°C° 0.1 mm 2 m/s 759 mmHg 87%
09:00 +29°C° 0.1 mm 2 m/s 759 mmHg 83%
10:00 +30°C° 0.1 mm 2 m/s 759 mmHg 74%
11:00 +32°C° 0.1 mm 2 m/s 759 mmHg 66%
12:00 +34°C° 0.1 mm 2 m/s 758 mmHg 57%
13:00 +32°C° 0.3 mm 2 m/s 758 mmHg 64%
14:00 +31°C° 0.3 mm 2 m/s 757 mmHg 71%
15:00 +30°C° 0.3 mm 3 m/s 756 mmHg 77%
16:00 +29°C° 0.4 mm 2 m/s 756 mmHg 82%
17:00 +28°C° 0.4 mm 2 m/s 756 mmHg 86%
18:00 +28°C° 0.4 mm 2 m/s 757 mmHg 91%
19:00 +27°C° 0.2 mm 2 m/s 757 mmHg 92%
20:00 +27°C° 0.2 mm 2 m/s 758 mmHg 94%
21:00 +26°C° 0.2 mm 2 m/s 758 mmHg 95%
22:00 +26°C° 0.3 mm 2 m/s 758 mmHg 96%
23:00 +26°C° 0.3 mm 2 m/s 758 mmHg 96%

Demain, 14 Avril, Mercredi

Heure Température Précipitation Vent Pression Humidité
00:00 +26°C° 0.3 mm 2 m/s 759 mmHg 97%
01:00 +25°C° 0 mm 2 m/s 758 mmHg 97%
02:00 +25°C° 0 mm 1 m/s 757 mmHg 97%
03:00 +25°C° 0 mm 1 m/s 757 mmHg 97%
04:00 +25°C° 0.1 mm 1 m/s 757 mmHg 98%
05:00 +25°C° 0.1 mm 1 m/s 757 mmHg 98%
06:00 +25°C° 0.1 mm 1 m/s 757 mmHg 98%
07:00 +26°C° 0.2 mm 1 m/s 758 mmHg 94%
08:00 +27°C° 0.2 mm 2 m/s 758 mmHg 90%
09:00 +28°C° 0.2 mm 2 m/s 759 mmHg 86%
10:00 +30°C° 0.4 mm 2 m/s 759 mmHg 79%
11:00 +31°C° 0.4 mm 2 m/s 758 mmHg 73%
12:00 +32°C° 0.4 mm 2 m/s 758 mmHg 66%
13:00 +32°C° 0.8 mm 2 m/s 757 mmHg 68%
14:00 +32°C° 0.8 mm 2 m/s 756 mmHg 71%
15:00 +32°C° 0.8 mm 2 m/s 756 mmHg 73%
16:00 +30°C° 0.5 mm 2 m/s 756 mmHg 79%
17:00 +29°C° 0.5 mm 2 m/s 756 mmHg 85%
18:00 +28°C° 0.5 mm 2 m/s 756 mmHg 91%
19:00 +27°C° 0.2 mm 2 m/s 757 mmHg 92%
20:00 +27°C° 0.2 mm 2 m/s 757 mmHg 94%
21:00 +26°C° 0.2 mm 2 m/s 758 mmHg 96%
22:00 +26°C° 0.1 mm 2 m/s 758 mmHg 96%
23:00 +26°C° 0.1 mm 2 m/s 758 mmHg 97%

Après-demain, 15 Avril, Jeudi

Heure Température Précipitation Vent Pression Humidité
00:00 +26°C° 0.1 mm 2 m/s 758 mmHg 97%
01:00 +26°C° 0 mm 2 m/s 757 mmHg 97%
02:00 +26°C° 0 mm 2 m/s 757 mmHg 97%
03:00 +25°C° 0 mm 1 m/s 756 mmHg 98%
04:00 +25°C° 0 mm 2 m/s 757 mmHg 98%
05:00 +25°C° 0 mm 2 m/s 757 mmHg 98%
06:00 +25°C° 0 mm 2 m/s 757 mmHg 98%
07:00 +26°C° 0 mm 2 m/s 757 mmHg 93%
08:00 +27°C° 0 mm 2 m/s 758 mmHg 89%
09:00 +29°C° 0 mm 2 m/s 759 mmHg 84%
10:00 +30°C° 0.1 mm 2 m/s 758 mmHg 75%
11:00 +32°C° 0.1 mm 2 m/s 758 mmHg 66%
12:00 +34°C° 0.1 mm 2 m/s 757 mmHg 56%
13:00 +34°C° 0.3 mm 2 m/s 757 mmHg 63%
14:00 +32°C° 0.3 mm 2 m/s 756 mmHg 69%
15:00 +31°C° 0.3 mm 2 m/s 755 mmHg 75%
16:00 +30°C° 0.5 mm 2 m/s 755 mmHg 81%
17:00 +28°C° 0.5 mm 2 m/s 755 mmHg 86%
18:00 +27°C° 0.5 mm 2 m/s 755 mmHg 92%
19:00 +27°C° 0.5 mm 2 m/s 756 mmHg 93%
20:00 +26°C° 0.5 mm 2 m/s 757 mmHg 94%
21:00 +26°C° 0.5 mm 2 m/s 758 mmHg 96%
22:00 +26°C° 0 mm 2 m/s 758 mmHg 96%
23:00 +25°C° 0 mm 2 m/s 758 mmHg 97%

16 Avril, Vendredi

Heure Température Précipitation Vent Pression Humidité
00:00 +25°C° 0 mm 2 m/s 758 mmHg 97%
01:00 +25°C° 0.4 mm 2 m/s 757 mmHg 97%
02:00 +25°C° 0.4 mm 2 m/s 757 mmHg 97%
03:00 +25°C° 0.4 mm 1 m/s 757 mmHg 98%
04:00 +25°C° 0.1 mm 1 m/s 757 mmHg 98%
05:00 +25°C° 0.1 mm 1 m/s 757 mmHg 98%
06:00 +25°C° 0.1 mm 2 m/s 757 mmHg 98%
07:00 +26°C° 0.1 mm 2 m/s 758 mmHg 94%
08:00 +27°C° 0.1 mm 2 m/s 758 mmHg 91%
09:00 +28°C° 0.1 mm 2 m/s 758 mmHg 87%
10:00 +29°C° 0.9 mm 2 m/s 758 mmHg 82%
11:00 +30°C° 0.9 mm 2 m/s 758 mmHg 78%
12:00 +31°C° 0.9 mm 2 m/s 758 mmHg 73%
13:00 +30°C° 0.8 mm 2 m/s 757 mmHg 76%
14:00 +30°C° 0.8 mm 2 m/s 756 mmHg 79%
15:00 +30°C° 0.8 mm 2 m/s 756 mmHg 82%
16:00 +29°C° 1.6 mm 2 m/s 756 mmHg 86%
17:00 +28°C° 1.6 mm 2 m/s 756 mmHg 90%
18:00 +27°C° 1.6 mm 2 m/s 756 mmHg 93%
19:00 +26°C° 0.7 mm 2 m/s 756 mmHg 94%
20:00 +26°C° 0.7 mm 2 m/s 757 mmHg 95%
21:00 +26°C° 0.7 mm 2 m/s 757 mmHg 96%
22:00 +26°C° 0.4 mm 2 m/s 757 mmHg 96%
23:00 +26°C° 0.4 mm 2 m/s 758 mmHg 96%

17 Avril, Samedi

Heure Température Précipitation Vent Pression Humidité
00:00 +25°C° 0.4 mm 2 m/s 758 mmHg 96%
01:00 +25°C° 0.3 mm 2 m/s 757 mmHg 96%
02:00 +25°C° 0.3 mm 2 m/s 757 mmHg 96%
03:00 +25°C° 0.3 mm 1 m/s 756 mmHg 96%
04:00 +25°C° 0.4 mm 1 m/s 757 mmHg 96%
05:00 +25°C° 0.4 mm 1 m/s 757 mmHg 96%
06:00 +25°C° 0.4 mm 1 m/s 757 mmHg 96%
07:00 +25°C° 0.4 mm 1 m/s 758 mmHg 96%
08:00 +25°C° 0.4 mm 1 m/s 759 mmHg 96%
09:00 +25°C° 0.4 mm 1 m/s 759 mmHg 96%
10:00 +25°C° 0.5 mm 1 m/s 759 mmHg 96%
11:00 +26°C° 0.5 mm 1 m/s 759 mmHg 96%
12:00 +26°C° 0.5 mm 1 m/s 759 mmHg 96%
13:00 +26°C° 0.4 mm 1 m/s 758 mmHg 96%
14:00 +26°C° 0.4 mm 1 m/s 758 mmHg 96%
15:00 +24°C° 0.4 mm 0 m/s 757 mmHg 95%
16:00 +24°C° 0.4 mm 0 m/s 757 mmHg 96%
17:00 +25°C° 0.4 mm 1 m/s 757 mmHg 97%
18:00 +25°C° 0.4 mm 1 m/s 757 mmHg 98%
19:00 +25°C° 1.2 mm 1 m/s 758 mmHg 98%
20:00 +25°C° 1.2 mm 1 m/s 758 mmHg 98%
21:00 +25°C° 1.2 mm 1 m/s 758 mmHg 98%
22:00 +25°C° 0.1 mm 1 m/s 759 mmHg 98%
23:00 +25°C° 0.1 mm 2 m/s 759 mmHg 98%

18 Avril, Dimanche

Heure Température Précipitation Vent Pression Humidité
00:00 +25°C° 0.1 mm 2 m/s 759 mmHg 98%
01:00 +24°C° 0.1 mm 2 m/s 758 mmHg 98%
02:00 +24°C° 0.1 mm 2 m/s 758 mmHg 98%
03:00 +24°C° 0.1 mm 1 m/s 757 mmHg 98%
04:00 +24°C° 0.3 mm 2 m/s 758 mmHg 98%
05:00 +24°C° 0.3 mm 2 m/s 758 mmHg 98%
06:00 +24°C° 0.3 mm 2 m/s 758 mmHg 98%
07:00 +24°C° 0.2 mm 2 m/s 759 mmHg 97%
08:00 +25°C° 0.2 mm 1 m/s 759 mmHg 96%
09:00 +25°C° 0.2 mm 1 m/s 759 mmHg 96%
10:00 +25°C° 0.2 mm 1 m/s 760 mmHg 94%
11:00 +26°C° 0.2 mm 1 m/s 760 mmHg 93%
12:00 +26°C° 0.2 mm 1 m/s 760 mmHg 92%
13:00 +26°C° 0.1 mm 1 m/s 759 mmHg 89%
14:00 +27°C° 0.1 mm 2 m/s 758 mmHg 87%
15:00 +27°C° 0.1 mm 2 m/s 758 mmHg 84%
16:00 +27°C° 0 mm 2 m/s 758 mmHg 87%
17:00 +26°C° 0 mm 2 m/s 758 mmHg 90%
18:00 +26°C° 0 mm 2 m/s 757 mmHg 94%
19:00 +25°C° 0 mm 2 m/s 758 mmHg 95%
20:00 +25°C° 0 mm 1 m/s 758 mmHg 95%
21:00 +25°C° 0 mm 1 m/s 759 mmHg 96%
22:00 +25°C° 0 mm 1 m/s 759 mmHg 96%
23:00 +25°C° 0 mm 1 m/s 759 mmHg 96%
Voir plus

Nous avons besoin de votre consentement

Meteoprog et ses fournisseurs de services peuvent stocker et accéder à des données personnelles telles que des cookies, des identifiants d'appareils ou d'autres technologies similaires sur votre appareil et traiter ces données pour personnaliser le contenu et les publicités, ainsi que pour fournir des fonctionnalités de médias sociaux et analyser le trafic.

  • Stocker et/ou accéder à des informations sur votre appareil

    Des cookies, des identifiants d'appareils ou d'autres informations peuvent être stockés ou accessibles sur votre appareil aux fins indiquées ci-dessus.

  • Annonces et contenus personnalisés, mesure des annonces et des contenus, connaissance de l'audience et développement de produits

    Les annonces et le contenu peuvent être personnalisés en fonction d'un profil. D'autres données peuvent être ajoutées pour mieux personnaliser les annonces et le contenu. Les performances des publicités et du contenu peuvent être mesurées. Il est possible d'obtenir des informations sur le public qui a vu les publicités et le contenu. Ces données peuvent être utilisées pour développer ou améliorer l'expérience de l'utilisateur, les systèmes et les logiciels.

En cliquant sur "J'accepte", vous autorisez l'utilisation de cookies, des identifiants d'appareils, des balises web ou d'autres technologies similaires. Vos paramètres peuvent être modifiés dans le navigateur de votre appareil.

Dans certains cas, des intérêts légitimes peuvent être invoqués plutôt qu'un consentement. Vous pouvez en savoir plus à ce sujet dans notre Politique de confidentialité et de cookies.